Location: ??
(35.1715°N, 139.6450°E)
Time: 21:00:15
(UTC+00:00)

METEOR-M - Pass Details

Date: 05 August 2024
Orbit: 814 x 818 km, 98.6° (Epoch: 14 September)

Event Time Altitude Azimuth Distance (km) Brightness Sun altitude
Rises 17:54:03 0° 13° (NNE) 3,344 8.2 -21.8°
Reaches altitude 10° 17:56:24 10° 14° (NNE) 2,409 7.3 -21.5°
Maximum altitude 18:01:44 87° 104° (ESE) 819 4.1 -20.6°
Enters shadow 18:04:19 32° 192° (SSW) 1,371 4.9 -20.2°
